UFO 4 (USA 108)

Last updated on Jan. 20, 2021, 6:22 a.m. UTC

1 23467U 95003A   21019.79655309 -.00000021  00000-0  00000-0 0  9990
2 23467   9.8154  19.9279 0002306  19.0987 179.2766  1.00275161 95154
UTC
Height (km)
Latitude
Longitude
Inclination
Orbital Period
UTC large
Height (km)
Speed (km/s)
/
Latitude / Longitude
Inclination (degrees)
Orbital Period (minutes)
Azimuth
Elevation
Range (km)
Doppler Factor
iOS Compass Heading
iOS Angle

Next 30 passes for location: Hong Kong

Rise time Rise Azimuth (degrees) Set time Set Azimuth (degrees) Duration Max altitude (degrees)

No matching passes for this satellites